SR5MRF Weather Reports


time (UTC)temp
F
wind
direction
speed
knots
gust
knots
rain 1hr
in
rain 24hr
in
rain mn
in
humidity
%
barometer
mb
20260508072835 51 315 0.0 0.0 0.00 0.00 0.00 76 1015.0
20260508072135 51 337 0.0 0.0 0.00 0.00 0.00 76 1014.8
20260508071836 51 315 0.0 0.0 0.00 0.00 0.00 76 1014.8
20260508071435 52 337 0.0 0.0 0.00 0.00 0.00 76 1014.6
20260508070837 51 337 0.0 0.0 0.00 0.00 0.00 76 1014.6
20260508070735 51 337 0.0 0.0 0.00 0.00 0.00 76 1014.5
20260508070035 51 337 0.0 0.0 0.00 0.00 0.00 76 1014.5
20260508065836 51 337 0.0 0.0 0.00 0.00 0.00 76 1014.5
20260508065335 51 337 0.0 0.0 0.00 0.00 0.00 76 1014.5
20260508064836 51 337 0.0 0.0 0.00 0.00 0.00 76 1014.5
20260508064635 51 337 0.0 0.0 0.00 0.00 0.00 76 1014.5
20260508063935 51 337 0.0 0.0 0.00 0.00 0.00 76 1014.5
20260508063836 51 337 0.0 0.0 0.00 0.00 0.00 76 1014.5
20260508063235 51 337 0.0 0.0 0.00 0.00 0.00 77 1014.5
20260508062836 51 337 0.0 0.0 0.00 0.00 0.00 77 1014.5
20260508062535 51 337 0.0 0.0 0.00 0.00 0.00 77 1014.5
20260508061835 51 337 0.0 0.0 0.00 0.00 0.00 77 1014.4
20260508061135 51 337 0.0 0.0 0.00 0.00 0.00 77 1014.4
20260508060435 51 337 0.0 0.0 0.00 0.00 0.00 77 1014.4
20260508055836 51 337 0.0 0.0 0.00 0.00 0.00 77 1014.4
20260508055735 51 337 0.0 0.0 0.00 0.00 0.00 77 1014.4
20260508055035 51 337 0.0 0.0 0.00 0.00 0.00 77 1014.2
20260508054836 51 337 0.0 0.0 0.00 0.00 0.00 76 1014.1
20260508054335 51 337 0.0 0.0 0.00 0.00 0.00 77 1014.2
20260508053836 51 337 0.0 0.0 0.00 0.00 0.00 76 1014.3
20260508053635 51 337 0.0 0.0 0.00 0.00 0.00 76 1014.2
20260508052935 51 337 0.0 0.0 0.00 0.00 0.00 77 1014.2
20260508052836 51 337 0.0 0.0 0.00 0.00 0.00 77 1014.0
20260508052235 51 337 0.0 0.0 0.00 0.00 0.00 77 1014.1
20260508051535 51 337 0.0 0.0 0.00 0.00 0.00 77 1014.1
20260508050836 51 337 0.0 0.0 0.00 0.00 0.00 76 1013.9
20260508050136 51 337 0.0 0.0 0.00 0.00 0.00 76 1014.0
20260508045836 51 337 0.0 0.0 0.00 0.00 0.00 76 1014.1
20260508045435 51 337 0.0 0.0 0.00 0.00 0.00 76 1013.9
20260508044836 51 337 0.0 0.0 0.00 0.00 0.00 76 1013.9
20260508044736 51 337 0.0 0.0 0.00 0.00 0.00 76 1014.0
20260508044036 51 337 0.0 0.0 0.00 0.00 0.00 75 1014.0
20260508043836 51 337 0.0 0.0 0.00 0.00 0.00 75 1014.0
20260508043336 51 337 0.0 0.0 0.00 0.00 0.00 75 1014.0
20260508042836 51 337 0.0 0.0 0.00 0.00 0.00 75 1013.9
20260508042636 51 315 0.0 0.0 0.00 0.00 0.00 75 1013.9
20260508041936 51 202 0.0 0.0 0.00 0.00 0.00 75 1013.8
20260508041836 51 202 0.0 0.0 0.00 0.00 0.00 75 1013.6
20260508041236 51 337 0.0 0.0 0.00 0.00 0.00 75 1013.8
20260508040536 51 337 0.0 0.0 0.00 0.00 0.00 75 1013.6
20260508035836 51 337 0.0 0.0 0.00 0.00 0.00 75 1013.9
20260508035136 51 337 0.0 0.0 0.00 0.00 0.00 75 1013.7
20260508034436 51 337 0.0 0.0 0.00 0.00 0.00 75 1013.9
20260508033836 51 337 0.0 0.0 0.00 0.00 0.00 75 1013.8
20260508033736 51 337 0.0 0.0 0.00 0.00 0.00 75 1013.9
20260508033036 51 337 0.0 0.0 0.00 0.00 0.00 75 1013.7
20260508032837 51 337 0.0 0.0 0.00 0.00 0.00 75 1013.7
20260508032336 51 337 0.0 0.0 0.00 0.00 0.00 75 1013.8
20260508031837 51 337 0.0 0.0 0.00 0.00 0.00 75 1013.9
20260508031636 51 337 0.0 0.0 0.00 0.00 0.00 75 1013.8
20260508030936 51 337 0.0 0.0 0.00 0.00 0.00 75 1013.7
20260508030837 51 315 0.0 0.0 0.00 0.00 0.00 75 1013.7
20260508030236 51 202 0.0 0.0 0.00 0.00 0.00 74 1013.7
20260508025837 51 337 0.0 0.0 0.00 0.00 0.00 74 1013.6
20260508025536 51 315 0.0 0.0 0.00 0.00 0.00 74 1013.6
20260508024836 51 337 0.0 0.0 0.00 0.00 0.00 74 1013.4
20260508024136 51 337 0.0 0.0 0.00 0.00 0.00 74 1013.7
20260508023436 51 337 0.0 0.0 0.00 0.00 0.00 74 1013.5
20260508022736 51 337 0.0 0.0 0.00 0.00 0.00 74 1013.5
20260508022036 51 337 0.0 0.0 0.00 0.00 0.00 73 1013.4
20260508021837 51 337 0.0 0.0 0.00 0.00 0.00 73 1013.4
20260508021336 51 337 0.0 0.0 0.00 0.00 0.00 73 1013.7
20260508020837 51 337 0.0 0.0 0.00 0.00 0.00 73 1013.5
20260508020636 51 337 0.0 0.0 0.00 0.00 0.00 73 1013.7
20260508015936 51 337 0.0 0.0 0.00 0.00 0.00 73 1013.5
20260508015837 51 337 0.0 0.0 0.00 0.00 0.00 73 1013.6
20260508015236 52 315 0.0 0.0 0.00 0.00 0.00 73 1013.5
20260508014837 52 337 0.0 0.0 0.00 0.00 0.00 73 1013.4
20260508014536 52 337 0.0 0.0 0.00 0.00 0.00 73 1013.5
20260508013836 52 337 0.0 0.0 0.00 0.00 0.00 73 1013.4
20260508013136 52 337 0.0 0.0 0.00 0.00 0.00 73 1013.5
20260508012837 52 337 0.0 0.0 0.00 0.00 0.00 73 1013.4
20260508012436 52 0 0.0 0.0 0.00 0.00 0.00 73 1013.3
20260508011837 52 337 0.0 0.0 0.00 0.00 0.00 73 1013.3
20260508011736 52 337 0.0 0.0 0.00 0.00 0.00 73 1013.3
20260508011036 52 337 0.0 0.0 0.00 0.00 0.00 73 1013.4
20260508010911 52 157 0.0 0.0 0.00 0.00 0.00 72 1013.5
20260508010336 52 337 0.0 0.0 0.00 0.00 0.00 73 1013.6
20260508005837 52 337 0.0 0.0 0.00 0.00 0.00 72 1013.2
20260508005636 52 337 0.0 0.0 0.00 0.00 0.00 72 1013.3
20260508004936 52 0 0.0 0.0 0.00 0.00 0.00 73 1013.4
20260508004837 52 0 0.0 0.0 0.00 0.00 0.00 73 1013.4
20260508004236 52 337 0.0 0.0 0.00 0.00 0.00 72 1013.4
20260508003837 52 157 0.0 0.0 0.00 0.00 0.00 72 1013.3
20260508003536 52 337 0.0 0.0 0.00 0.00 0.00 72 1013.3
20260508002836 53 337 0.0 0.0 0.00 0.00 0.00 72 1013.4
20260508002136 53 337 0.0 0.0 0.00 0.00 0.00 72 1013.3
20260508001837 53 337 0.0 0.0 0.00 0.00 0.00 72 1013.2
20260508001436 53 337 0.0 0.0 0.00 0.00 0.00 72 1013.4
20260508000837 53 337 0.0 0.0 0.00 0.00 0.00 72 1013.4
20260508000736 53 337 0.0 0.0 0.00 0.00 0.00 72 1013.3
20260508000036 53 337 0.0 0.0 0.00 0.00 0.00 72 1013.2
20260507235837 53 337 0.0 0.0 0.00 0.00 0.00 72 1013.1
20260507235336 53 337 0.0 0.0 0.00 0.00 0.00 72 1013.1
20260507234636 53 0 0.0 0.0 0.00 0.00 0.00 72 1013.3
20260507233936 53 337 0.0 0.0 0.00 0.00 0.00 71 1013.1
20260507233837 53 247 0.0 0.0 0.00 0.00 0.00 71 1013.4
20260507233236 53 157 0.0 0.0 0.00 0.00 0.00 71 1013.2
20260507232837 53 337 0.0 0.0 0.00 0.00 0.00 71 1013.2
20260507232536 53 337 0.0 0.0 0.00 0.00 0.00 71 1013.2
20260507231836 53 337 0.0 0.0 0.00 0.00 0.00 71 1013.1
20260507231136 53 90 0.0 0.0 0.00 0.00 0.00 71 1013.2
20260507230837 53 0 0.0 0.0 0.00 0.00 0.00 71 1013.2
20260507230436 53 0 0.0 0.0 0.00 0.00 0.00 71 1013.2
20260507225837 54 337 0.0 0.0 0.00 0.00 0.00 71 1013.2
20260507225736 54 337 0.0 0.0 0.00 0.00 0.00 71 1013.1
20260507225036 54 180 0.0 0.0 0.00 0.00 0.00 71 1013.1
20260507224336 54 337 0.0 0.0 0.00 0.00 0.00 71 1013.1
20260507223837 54 0 0.0 0.0 0.00 0.00 0.00 71 1013.1
20260507223636 54 337 0.0 0.0 0.00 0.00 0.00 71 1013.1
20260507222936 54 337 0.0 0.0 0.00 0.00 0.00 71 1012.9
20260507222837 54 315 0.0 0.0 0.00 0.00 0.00 71 1013.0
20260507222236 54 247 0.0 0.0 0.00 0.00 0.00 71 1012.9
20260507221837 54 337 0.0 0.0 0.00 0.00 0.00 71 1013.0
20260507221536 54 315 0.0 0.0 0.00 0.00 0.00 71 1012.9
20260507220836 54 0 0.0 0.0 0.00 0.00 0.00 71 1012.8
20260507220136 54 337 0.0 0.0 0.00 0.00 0.00 71 1012.6
20260507215837 54 337 0.0 0.0 0.00 0.00 0.00 71 1012.6
20260507215436 54 157 0.0 0.0 0.00 0.00 0.00 71 1012.6
20260507214837 54 0 0.0 0.0 0.00 0.00 0.00 71 1012.7
20260507214736 54 315 0.0 0.0 0.00 0.00 0.00 71 1012.6
20260507214036 54 337 0.0 0.0 0.00 0.00 0.00 71 1012.6
20260507213837 54 315 0.0 0.0 0.00 0.00 0.00 70 1012.5
20260507213336 55 315 0.0 0.0 0.00 0.00 0.00 70 1012.5
20260507212837 55 337 0.0 0.0 0.00 0.00 0.00 70 1012.4
20260507212636 55 337 0.0 0.0 0.00 0.00 0.00 70 1012.5
20260507211936 55 337 0.0 0.0 0.00 0.00 0.00 70 1012.5
20260507211837 55 337 0.0 0.0 0.00 0.00 0.00 70 1012.4
20260507211236 55 337 0.0 0.0 0.00 0.00 0.00 70 1012.4
20260507210837 55 0 0.0 0.0 0.00 0.00 0.00 70 1012.5
20260507210536 55 337 0.0 0.0 0.00 0.00 0.00 70 1012.6
20260507205836 55 337 0.0 0.0 0.00 0.00 0.00 70 1012.5
20260507205136 55 337 0.0 0.0 0.00 0.00 0.00 70 1012.6
20260507204436 55 337 0.0 0.0 0.00 0.00 0.00 70 1012.4
20260507203837 55 337 0.0 0.0 0.00 0.00 0.00 70 1012.3
20260507203736 55 337 0.0 0.0 0.00 0.00 0.00 70 1012.4
20260507203036 55 337 0.0 0.0 0.00 0.00 0.00 70 1012.3
20260507202837 55 337 0.0 0.0 0.00 0.00 0.00 69 1012.5
20260507202336 55 337 0.0 0.0 0.00 0.00 0.00 69 1012.5
20260507201837 55 337 0.0 0.0 0.00 0.00 0.00 69 1012.6
20260507201636 55 315 0.0 0.0 0.00 0.00 0.00 69 1012.6
20260507200936 55 0 0.0 0.0 0.00 0.00 0.00 69 1012.3
20260507200837 55 337 0.0 0.0 0.00 0.00 0.00 69 1012.4
20260507200236 55 337 0.0 0.0 0.00 0.00 0.00 69 1012.2
20260507195837 55 337 0.0 0.0 0.00 0.00 0.00 70 1012.3
20260507195536 55 337 0.0 0.0 0.00 0.00 0.00 70 1012.4
20260507194836 55 337 0.0 0.0 0.00 0.00 0.00 70 1012.3
20260507194136 55 337 0.0 0.0 0.00 0.00 0.00 70 1012.2
20260507193837 55 337 0.0 0.0 0.00 0.00 0.00 70 1012.2
20260507193436 55 180 0.0 0.0 0.00 0.00 0.00 70 1012.1
20260507192837 55 337 0.0 0.0 0.00 0.00 0.00 70 1012.3
20260507192736 55 337 0.0 0.0 0.00 0.00 0.00 70 1012.2
20260507192036 56 337 0.0 0.0 0.00 0.00 0.00 70 1011.9
20260507191837 56 157 0.0 0.0 0.00 0.00 0.00 70 1011.8
20260507191336 56 337 0.0 0.0 0.00 0.00 0.00 69 1012.0
20260507190837 56 337 0.0 0.0 0.00 0.00 0.00 69 1012.0
20260507190636 56 337 0.0 0.0 0.00 0.00 0.00 69 1012.0
20260507185936 56 337 0.0 0.0 0.00 0.00 0.00 69 1012.2
20260507185837 56 337 0.0 0.0 0.00 0.00 0.00 69 1012.1
20260507185236 56 337 0.0 0.0 0.00 0.00 0.00 69 1012.0
20260507184837 56 337 0.0 0.0 0.00 0.00 0.00 69 1012.1
20260507184536 56 337 0.0 0.0 0.00 0.00 0.00 69 1011.8
20260507183836 56 337 0.0 0.0 0.00 0.00 0.00 69 1011.7
20260507183136 56 337 0.0 0.0 0.00 0.00 0.00 69 1011.7
20260507182837 57 337 0.0 0.0 0.00 0.00 0.00 69 1011.6
20260507182436 57 337 0.0 0.0 0.00 0.00 0.00 69 1011.6
20260507181837 57 337 0.0 0.0 0.00 0.00 0.00 69 1011.4
20260507181736 57 337 0.0 0.0 0.00 0.00 0.00 69 1011.4
20260507181036 57 337 0.0 0.0 0.00 0.00 0.00 69 1011.4
20260507180837 57 337 0.0 0.0 0.00 0.00 0.00 69 1011.4
20260507180336 57 315 0.0 0.0 0.00 0.00 0.00 69 1011.4
20260507175837 57 337 0.0 0.0 0.00 0.00 0.00 69 1011.3
20260507175636 57 337 0.0 0.0 0.00 0.00 0.00 69 1011.3
20260507174936 57 337 0.0 0.0 0.00 0.00 0.00 69 1011.2
20260507174837 57 337 0.0 0.0 0.00 0.00 0.00 69 1011.1
20260507174236 57 337 0.0 0.0 0.00 0.00 0.00 69 1010.9
20260507173837 57 315 0.0 0.0 0.00 0.00 0.00 69 1010.8
20260507173536 57 337 0.0 0.0 0.00 0.00 0.00 69 1010.9
20260507172836 57 337 0.0 0.0 0.00 0.00 0.00 68 1010.6
20260507172136 58 337 0.0 0.0 0.00 0.00 0.00 68 1010.3
20260507171837 58 337 0.0 0.0 0.00 0.00 0.00 68 1010.5
20260507171436 58 337 0.0 0.0 0.00 0.00 0.00 68 1010.4
20260507170736 58 315 0.0 0.0 0.00 0.00 0.00 68 1010.4
20260507170036 58 337 0.0 0.0 0.00 0.00 0.00 68 1010.2
20260507165837 58 337 0.0 0.0 0.00 0.00 0.00 68 1010.0
20260507165336 58 337 0.0 0.0 0.00 0.00 0.00 68 1009.9
20260507164837 58 337 0.0 0.0 0.00 0.00 0.00 68 1010.0
20260507164636 58 337 0.0 0.0 0.00 0.00 0.00 68 1009.9
20260507163937 58 337 0.0 0.0 0.00 0.00 0.00 68 1010.1
20260507163837 58 337 0.0 0.0 0.00 0.00 0.00 67 1010.0
20260507163236 58 337 0.0 0.0 0.00 0.00 0.00 67 1010.1
20260507162837 59 337 0.0 0.0 0.00 0.00 0.00 67 1010.2
20260507162537 59 337 0.0 0.0 0.00 0.00 0.00 67 1010.2
20260507161837 59 315 0.0 0.0 0.00 0.00 0.00 67 1010.0
20260507161137 59 337 0.0 0.0 0.00 0.00 0.00 67 1010.2
20260507160837 59 337 0.0 0.0 0.00 0.00 0.00 67 1010.3
20260507160437 59 337 0.0 0.0 0.00 0.00 0.00 66 1010.3
20260507155837 59 337 0.0 0.0 0.00 0.00 0.00 66 1010.3
20260507155737 59 337 0.0 0.0 0.00 0.00 0.00 66 1010.3
20260507155037 60 337 0.0 0.0 0.00 0.00 0.00 66 1010.6
20260507154837 60 337 0.0 0.0 0.00 0.00 0.00 66 1010.5
20260507154337 60 337 0.0 0.0 0.00 0.00 0.00 66 1010.3
20260507153637 60 315 0.0 0.0 0.00 0.00 0.00 66 1010.4
20260507152937 60 337 0.0 0.0 0.00 0.00 0.00 66 1010.3
20260507152846 60 337 0.0 0.0 0.00 0.00 0.00 66 1010.3
20260507152237 60 337 0.0 0.0 0.00 0.00 0.00 66 1010.3
20260507151837 60 337 0.0 0.0 0.00 0.00 0.00 66 1010.2
20260507151537 60 337 0.0 0.0 0.00 0.00 0.00 66 1010.3
20260507150837 61 337 0.0 0.0 0.00 0.00 0.00 66 1010.3
20260507150137 61 337 0.0 0.0 0.00 0.00 0.00 66 1010.4
20260507145838 61 315 0.0 0.0 0.00 0.00 0.00 66 1010.3
20260507145437 61 315 0.0 0.0 0.00 0.00 0.00 66 1010.2
20260507144838 61 337 0.0 0.0 0.00 0.00 0.00 66 1010.2
20260507144737 61 337 0.0 0.0 0.00 0.00 0.00 66 1010.1
20260507144037 61 337 0.0 0.0 0.00 0.00 0.00 66 1010.1
20260507143838 61 337 0.0 0.0 0.00 0.00 0.00 66 1010.0
20260507143337 61 337 0.0 0.0 0.00 0.00 0.00 66 1009.9
20260507142838 61 337 0.0 0.0 0.00 0.00 0.00 66 1010.0
20260507142637 61 337 0.0 0.0 0.00 0.00 0.00 66 1009.9
20260507141937 61 337 0.0 0.0 0.00 0.00 0.00 66 1009.7
20260507141237 61 0 0.0 0.0 0.00 0.00 0.00 66 1009.7
20260507140838 61 337 0.0 0.0 0.00 0.00 0.00 66 1009.7
20260507140537 61 337 0.0 0.0 0.00 0.00 0.00 66 1009.7
20260507135837 62 337 0.0 0.0 0.00 0.00 0.00 66 1009.7
20260507135137 62 315 0.0 0.0 0.00 0.00 0.00 66 1009.6
20260507134437 62 337 0.0 0.0 0.00 0.00 0.00 66 1009.8
20260507133838 62 337 0.0 0.0 0.00 0.00 0.00 66 1009.8
20260507133737 62 315 0.0 0.0 0.00 0.00 0.00 66 1009.8
20260507133037 62 337 0.0 0.0 0.00 0.00 0.00 66 1009.7
20260507132838 62 0 0.0 0.0 0.00 0.00 0.00 66 1009.7
20260507132337 62 337 0.0 0.0 0.00 0.00 0.00 66 1009.7
20260507131838 62 337 0.0 0.0 0.00 0.00 0.00 66 1009.6
20260507131637 62 315 0.0 0.0 0.00 0.00 0.00 66 1009.6
20260507130937 63 0 0.0 0.0 0.00 0.00 0.00 66 1009.6
20260507130838 63 0 0.0 0.0 0.00 0.00 0.00 66 1009.6
20260507130237 63 337 0.0 0.0 0.00 0.00 0.00 66 1009.7
20260507125913 63 337 0.0 0.0 0.00 0.00 0.00 66 1009.7
20260507125838 63 337 0.0 0.0 0.00 0.00 0.00 66 1009.7
20260507125537 63 337 0.0 0.0 0.00 0.00 0.00 66 1009.5
20260507124837 63 337 0.0 0.0 0.00 0.00 0.00 66 1009.7
20260507124137 63 337 0.0 0.0 0.00 0.00 0.00 66 1009.7
20260507123838 63 315 0.0 0.0 0.00 0.00 0.00 66 1009.6
20260507123437 63 157 0.0 0.0 0.00 0.00 0.00 66 1009.6
20260507122838 63 337 0.0 0.0 0.00 0.00 0.00 67 1009.5
20260507122737 63 337 0.0 0.0 0.00 0.00 0.00 67 1009.4
20260507122037 63 337 0.0 0.0 0.00 0.00 0.00 67 1009.5
20260507121838 63 337 0.0 0.0 0.00 0.00 0.00 67 1009.6
20260507121337 63 337 0.0 0.0 0.00 0.00 0.00 67 1009.4
20260507120838 63 337 0.0 0.0 0.00 0.00 0.00 68 1009.4
20260507120637 63 337 0.0 0.0 0.00 0.00 0.00 68 1009.6
20260507115937 62 315 0.0 0.0 0.00 0.00 0.00 69 1009.4
20260507115838 62 337 0.0 0.0 0.00 0.00 0.00 69 1009.5
20260507115237 62 337 0.0 0.0 0.00 0.00 0.00 69 1009.5
20260507114838 62 337 0.0 0.0 0.00 0.00 0.00 69 1009.5
20260507114537 61 337 0.0 0.0 0.00 0.00 0.00 71 1009.4
20260507113837 61 337 0.0 0.0 0.00 0.00 0.00 71 1009.3
20260507113137 60 337 0.0 0.0 0.00 0.00 0.00 71 1009.3
20260507112838 60 337 0.0 0.0 0.00 0.00 0.00 70 1009.3
20260507112437 60 337 0.0 0.0 0.00 0.00 0.00 70 1009.3
20260507111838 60 337 0.0 0.0 0.00 0.00 0.00 70 1009.2
20260507111737 60 337 0.0 0.0 0.00 0.00 0.00 70 1009.3
20260507111037 60 337 0.0 0.0 0.00 0.00 0.00 70 1009.1
20260507110838 60 337 0.0 0.0 0.00 0.00 0.00 70 1009.3
20260507110337 60 337 0.0 0.0 0.00 0.00 0.00 70 1009.2
20260507105838 60 337 0.0 0.0 0.00 0.00 0.00 70 1009.0
20260507105637 60 337 0.0 0.0 0.00 0.00 0.00 70 1009.1
20260507104937 60 337 0.0 0.0 0.00 0.00 0.00 70 1009.1
20260507104838 60 337 0.0 0.0 0.00 0.00 0.00 70 1009.2
20260507104237 60 337 0.0 0.0 0.00 0.00 0.00 70 1009.1
20260507103838 60 337 0.0 0.0 0.00 0.00 0.00 69 1008.9
20260507103537 60 337 0.0 0.0 0.00 0.00 0.00 69 1009.1
20260507102837 61 315 0.0 0.0 0.00 0.00 0.00 69 1008.9
20260507102137 61 337 0.0 0.0 0.00 0.00 0.00 68 1008.9
20260507101437 62 337 0.0 0.0 0.00 0.00 0.00 68 1008.8
20260507100838 62 315 0.0 0.0 0.00 0.00 0.00 67 1008.6
20260507100737 62 337 0.0 0.0 0.00 0.00 0.00 67 1008.7
20260507100037 62 315 0.0 0.0 0.00 0.00 0.00 67 1008.6
20260507095838 63 292 0.0 0.0 0.00 0.00 0.00 67 1008.5
20260507095337 63 337 0.0 0.0 0.00 0.00 0.00 66 1008.5
20260507094838 63 337 0.0 0.0 0.00 0.00 0.00 66 1008.3
20260507094637 63 337 0.0 0.0 0.00 0.00 0.00 66 1008.2
20260507093937 64 315 0.0 0.0 0.00 0.00 0.00 65 1008.2
20260507093838 64 315 0.0 0.0 0.00 0.00 0.00 65 1008.3
20260507093237 65 337 0.0 0.0 0.00 0.00 0.00 65 1008.2
20260507092838 65 337 0.0 0.0 0.00 0.00 0.00 65 1008.0
20260507092537 65 0 0.0 0.0 0.00 0.00 0.00 65 1008.0
20260507091837 65 315 0.0 0.0 0.00 0.00 0.00 65 1007.9
20260507091137 65 337 0.0 0.0 0.00 0.00 0.00 66 1007.8
20260507090838 65 337 0.0 0.0 0.00 0.00 0.00 66 1007.7
20260507090437 65 337 0.0 0.0 0.00 0.00 0.00 66 1007.8
20260507085838 65 315 0.0 0.0 0.00 0.00 0.00 66 1007.8
20260507085737 65 315 0.0 0.0 0.00 0.00 0.00 66 1007.8
20260507085037 66 315 0.0 0.0 0.00 0.00 0.00 65 1007.5
20260507084838 66 315 0.0 0.0 0.00 0.00 0.00 65 1007.6
20260507084337 66 337 0.0 0.0 0.00 0.00 0.00 66 1007.5
20260507083637 66 337 0.0 0.0 0.00 0.00 0.00 67 1007.3
20260507082937 65 337 0.0 0.0 0.00 0.00 0.00 68 1007.3
20260507082237 64 337 0.0 0.0 0.00 0.00 0.00 67 1007.2
20260507081537 65 337 0.0 0.0 0.00 0.00 0.00 66 1007.0
20260507080837 65 337 0.0 0.0 0.00 0.00 0.00 66 1006.9
20260507080137 66 337 0.0 0.0 0.00 0.00 0.00 66 1007.1
20260507075838 66 337 0.0 0.0 0.00 0.00 0.00 66 1007.0
20260507075437 66 337 0.0 0.0 0.00 0.00 0.00 65 1006.9
20260507074737 66 337 0.0 0.0 0.00 0.00 0.00 65 1006.8
20260507074037 66 315 0.0 0.0 0.00 0.00 0.00 66 1006.8
20260507073838 66 337 0.0 0.0 0.00 0.00 0.00 66 1006.7
20260507073337 66 337 0.0 0.0 0.00 0.00 0.00 66 1006.6